Content
SEND FEEDBACK

Daily
Averages
Monthly
Summary
Switzerland

GENEVA, SWITZERLAND


Home > Europe > Switzerland
Elevation: 1364 feet     Latitude: 46 15N     Longitude: 006 08E

WEATHER
 
SELECT A DAY
Number of Records: 315,418;   Date Range: 7/1/96 - 11/22/14
 
SHARE

PRINT THIS DATA

[ ← Previous Day ]
WEATHER ALMANAC - FEBRUARY 8, 2014
[ Next Day → ]
[ °C ]   °F
Weather ElementAverageHighLow
Temperature39.3 °F45 °F (9:00 pm)31 °F (4:00 am)
Dewpoint35.2 °F41 °F (5:50 pm)31 °F (3:00 am)
Humidity83.6 %100 % (12:20 am)48 % (1:00 pm)
Barometer29.64 in29.90 in (1:00 am)29.50 in (2:50 pm)
Wind Speed8.6 mph21.9 mph (10:00 pm)
Weather ElementAverage
Visibility8.5 mi
Wind DirectionSSW (199.3 °)

Weather ElementTotal
Precipitation---
Heating Degree Days27 (Base 65)
Averaged from 70 records on February 8, 2014
WEATHER CONDITIONS BREAKOUT
WIND DIRECTION BREAKOUT
WEATHER BY HOUR - FEBRUARY 8, 2014
[ °C ]   °F
Local TimeTemperatureDewpointHumidityBarometerVisibilityWind DirectionWind SpeedGust SpeedPrecipitationEventsConditions
12:20 AM33.8 °F33.8 °F100 %29.86 in6.2 miVariable2.3 mphMostly Cloudy
12:50 AM33.8 °F33.8 °F100 %29.83 in6.2 miSW (220°)2.3 mphPartly Cloudy
1:00 AM33.0 °F32.0 °F93 %29.90 in25.0 miSouth (180°)2.3 mphPartly Cloudy
1:20 AM33.8 °F33.8 °F100 %29.83 in6.2 miCalmPartly Cloudy
1:50 AM32.0 °F32.0 °F100 %29.80 in6.2 miVariable1.2 mphPartly Cloudy
2:00 AM33.0 °F32.0 °F93 %29.86 inEast (90°)2.3 mph
2:50 AM32.0 °F32.0 °F100 %29.77 in6.2 miVariable2.3 mphFogShallow Fog
3:00 AM32.0 °F31.0 °F95 %29.84 inSouth (190°)4.6 mph
3:20 AM32.0 °F32.0 °F100 %29.74 in6.2 miVariable2.3 mphPartly Cloudy
3:50 AM32.0 °F32.0 °F100 %29.74 in6.2 miWest (260°)4.6 mphScattered Clouds
4:00 AM31.0 °F31.0 °F97 %29.81 in22.0 miWest (260°)4.6 mphScattered Clouds
4:20 AM32.0 °F32.0 °F100 %29.74 in6.2 miCalmScattered Clouds
4:50 AM33.8 °F33.8 °F100 %29.74 in6.2 miVariable3.5 mphMostly Cloudy
5:00 AM35.0 °F32.0 °F86 %29.79 inSSW (210°)5.8 mph
5:20 AM35.6 °F35.6 °F100 %29.71 in6.2 miSW (220°)4.6 mphMostly Cloudy
5:50 AM33.8 °F33.8 °F100 %29.71 inWSW (240°)4.6 mphClear
6:00 AM35.0 °F32.0 °F83 %29.77 inWest (260°)4.6 mph
6:20 AM33.8 °F32.0 °F93 %29.71 in6.2 miVariable2.3 mphMostly Cloudy
6:50 AM33.8 °F32.0 °F93 %29.68 in6.2 miVariable2.3 mphMostly Cloudy
7:00 AM35.0 °F33.0 °F87 %29.75 in19.0 miSW (230°)3.5 mphMostly Cloudy
7:20 AM35.6 °F33.8 °F93 %29.68 in6.2 miSW (220°)3.5 mphMostly Cloudy
7:50 AM35.6 °F33.8 °F93 %29.68 in6.2 miWSW (240°)5.8 mphMostly Cloudy
8:00 AM37.0 °F32.0 °F74 %29.71 inWest (260°)10.4 mph
8:20 AM37.4 °F33.8 °F87 %29.65 in6.2 miWSW (240°)6.9 mphMostly Cloudy
8:50 AM37.4 °F33.8 °F87 %29.65 in6.2 miWSW (250°)6.9 mphScattered Clouds
9:00 AM37.0 °F32.0 °F75 %29.69 inWSW (240°)9.2 mph
9:20 AM37.4 °F33.8 °F87 %29.62 in6.2 miWSW (240°)5.8 mphMostly Cloudy
9:50 AM39.2 °F33.8 °F81 %29.62 in6.2 miSW (230°)12.7 mphMostly Cloudy
10:00 AM39.0 °F32.0 °F66 %29.68 in31.0 miSW (220°)12.7 mphOvercast
10:20 AM39.2 °F33.8 °F81 %29.62 in6.2 miSW (220°)12.7 mphMostly Cloudy
10:50 AM39.2 °F33.8 °F81 %29.62 in6.2 miSW (220°)11.5 mphMostly Cloudy
11:00 AM40.0 °F32.0 °F64 %29.65 inWSW (240°)9.2 mph
11:20 AM41.0 °F32.0 °F70 %29.59 in6.2 miSW (220°)11.5 mphMostly Cloudy
11:50 AM44.6 °F32.0 °F61 %29.59 in6.2 miSW (230°)13.8 mphMostly Cloudy
12:00 PM44.0 °F32.0 °F50 %29.61 inSW (230°)12.7 mph
12:20 PM42.8 °F33.8 °F70 %29.56 in6.2 miWSW (240°)8.1 mphMostly Cloudy
12:50 PM44.6 °F33.8 °F66 %29.53 in6.2 miWest (260°)8.1 mphMostly Cloudy
1:00 PM44.0 °F31.0 °F48 %29.57 in44.0 miWest (260°)8.1 mphOvercast
1:20 PM44.6 °F33.8 °F66 %29.53 in6.2 miWSW (250°)9.2 mphMostly Cloudy
1:50 PM44.6 °F35.6 °F71 %29.53 in6.2 miWest (260°)5.8 mphRainLight Rain
2:00 PM43.0 °F34.0 °F61 %29.56 inWSW (240°)8.1 mph
2:20 PM44.6 °F35.6 °F71 %29.53 in6.2 miSW (220°)13.8 mphRainLight Rain
2:50 PM42.8 °F37.4 °F81 %29.50 in6.2 miWest (280°)4.6 mphRainLight Rain
3:00 PM42.0 °F36.0 °F73 %29.55 inWest (270°)3.5 mph
3:20 PM42.8 °F37.4 °F81 %29.53 in6.2 miWSW (240°)8.1 mphRainLight Rain
3:50 PM41.0 °F37.4 °F87 %29.53 in5.0 miSSW (200°)8.1 mphRainRain
4:00 PM42.0 °F37.0 °F76 %29.57 in5.0 miSSW (210°)9.2 mphRainRain
4:20 PM41.0 °F39.2 °F93 %29.53 in5.0 miWSW (240°)5.8 mphRainRain
4:50 PM41.0 °F39.2 °F93 %29.50 in6.2 miWNW (290°)8.1 mphRainLight Rain
5:00 PM42.0 °F39.0 °F83 %29.55 inWNW (290°)8.1 mph
5:20 PM41.0 °F39.2 °F93 %29.50 in6.2 miWest (270°)6.9 mphRainLight Rain
5:50 PM42.8 °F41.0 °F93 %29.50 in6.2 miWest (280°)8.1 mphMostly Cloudy
6:00 PM42.0 °F39.0 °F84 %29.55 inWest (280°)6.9 mph
6:20 PM42.8 °F41.0 °F93 %29.53 in5.6 miWSW (250°)6.9 mphRainLight Rain
6:50 PM41.0 °F41.0 °F100 %29.50 in6.2 miSSW (200°)9.2 mphMostly Cloudy
7:00 PM43.0 °F40.0 °F85 %29.56 in19.0 miSSW (200°)10.4 mphRainLight Rain
7:20 PM42.8 °F41.0 °F93 %29.53 in6.2 miSouth (180°)11.5 mphMostly Cloudy
7:50 PM42.8 °F41.0 °F93 %29.53 in6.2 miSSW (210°)15.0 mphRainLight Rain
8:00 PM43.0 °F40.0 °F83 %29.57 inSSW (200°)16.1 mph
8:20 PM42.8 °F41.0 °F93 %29.53 in6.2 miSSW (200°)13.8 mphRainLight Rain Showers
8:50 PM44.6 °F39.2 °F81 %29.56 in6.2 miSSW (200°)15.0 mphRainLight Rain Showers
9:00 PM45.0 °F37.0 °F65 %29.59 inSW (220°)13.8 mph
9:20 PM44.6 °F37.4 °F76 %29.56 in6.2 miSSW (210°)17.3 mphMostly Cloudy
9:50 PM44.6 °F37.4 °F76 %29.56 in6.2 miSSW (200°)19.6 mphRainLight Rain Showers
10:00 PM44.0 °F36.0 °F64 %29.62 in12.0 miSSW (210°)21.9 mphRainLight Rain Showers
10:20 PM42.8 °F37.4 °F81 %29.59 in6.2 miSSW (210°)21.9 mphRainLight Rain Showers
10:50 PM42.8 °F37.4 °F81 %29.59 in6.2 miSSW (210°)18.4 mphRainLight Rain Showers
11:00 PM42.0 °F36.0 °F72 %29.63 inSSW (200°)16.1 mph
11:20 PM42.8 °F37.4 °F81 %29.59 in6.2 miSSW (200°)15.0 mphMostly Cloudy
11:50 PM42.8 °F35.6 °F76 %29.62 in6.2 miSSW (210°)16.1 mphRainLight Rain Showers
Hourly data recorded from LSGG, located miles away from Geneva, Switzerland







STORIES FROM OUR PARTNERS